Weather History for St. Johnsbury, VT

Change the Weather History Date:

Friday, July 5, 2013

  Actual Average Record
Temperature  
Mean Temperature 76 °F 70 °F  
Max Temperature 87 °F 81 °F 99 °F (1911)
Min Temperature 65 °F 58 °F 38 °F (1979)
Cooling Degree Days 11 5  
Month to date cooling degree days 37 25  
Year to date cooling degree days 133 133  
Since 1 June cooling degree days 117 115  
Growing Degree Days 26 (Base 50)    
Moisture  
Dew Point 69 °F    
Average Humidity 75    
Maximum Humidity 100    
Minimum Humidity 50    
Precipitation  
Precipitation 0.00 in 0.13 in 1.70 in (1951)
Month to date precipitation 1.45 0.62  
Year to date precipitation 18.30 18.04  
Sea Level Pressure  
Sea Level Pressure 30.05 in    
Wind  
Wind Speed - (North)    
Max Wind Speed -    
Max Gust Speed -    
T = Trace of Precipitation, MM = Missing Value Source: NWS Daily Summary

Daily Weather History Graph

Daily Weather History Graph

Search for Another Location

Airport:

Trip Planner

Search our weather history database for the weather conditions in past years. The results will help you decide how hot, cold, wet, or windy it might be!

Date:

Astronomy

Jul. 05, 2013 Rise Set
Actual Time 5:10 AM EDT 8:35 PM EDT
Civil Twilight 4:33 AM EDT 9:11 PM EDT
Nautical Twilight 3:46 AM EDT 9:58 PM EDT
Astronomical Twilight 2:45 AM EDT 10:58 PM EDT
Moon 3:09 AM EDT (7/5) 6:25 PM EDT (7/5)
Length of Visible Light 16h 37m
Length of Day
15h 25m
Waning Crescent, 6% of the Moon is Illuminated
Jul 5
Waning Crescent
Jul 8
New
Jul 15
First Quarter
Jul 22
Full
Jul 29
Last Quarter

Hourly Weather History & Observations

Time (EDT) Temp. Heat Index Dew Point Humidity Pressure Visibility Wind Dir Wind Speed Gust Speed Precip Events Conditions
12:54 AM 70.0 °F - 69.1 °F 97% 30.08 in - North - - N/A   Unknown
1:54 AM 68.0 °F - 68.0 °F 100% 30.08 in - North - - N/A   Unknown
2:54 AM 68.0 °F - 66.9 °F 96% 30.08 in - North - - N/A   Unknown
3:54 AM 66.9 °F - 66.0 °F 97% 30.09 in - North - - N/A   Unknown
4:54 AM 66.0 °F - 66.0 °F 100% 30.10 in - North - - N/A   Unknown
5:54 AM 66.0 °F - 66.0 °F 100% 30.11 in - North - - N/A   Unknown
6:54 AM 66.9 °F - 66.0 °F 97% 30.12 in - North - - N/A   Unknown
7:54 AM 68.0 °F - 68.0 °F 100% 30.11 in - North - - N/A   Unknown
8:54 AM 70.0 °F - 69.1 °F 97% 30.10 in - North - - N/A   Unknown
9:54 AM 78.1 °F - 69.1 °F 74% 30.09 in - North - - N/A   Unknown
10:54 AM 79.0 °F - 69.1 °F 72% 30.08 in - North - - N/A   Unknown
11:54 AM 82.9 °F 86.5 °F 69.1 °F 63% 30.06 in - North - - N/A   Unknown
12:54 PM 84.0 °F 88.4 °F 70.0 °F 63% 30.04 in - North - - N/A   Unknown
1:54 PM 86.0 °F 88.2 °F 66.0 °F 51% 30.03 in - North - - N/A   Unknown
2:54 PM 87.1 °F 89.9 °F 66.9 °F 51% 30.02 in - North - - N/A   Unknown
3:54 PM 84.0 °F 86.5 °F 66.9 °F 56% 30.01 in - North - - N/A   Unknown
4:54 PM 82.0 °F 85.9 °F 70.0 °F 67% 30.00 in - North - - N/A   Unknown
5:54 PM 78.1 °F - 72.0 °F 81% 30.02 in - North - - N/A   Unknown
6:54 PM 77.0 °F - 71.1 °F 82% 30.01 in - North - - N/A   Unknown
7:54 PM 75.9 °F - 72.0 °F 87% 30.01 in - North - - N/A   Unknown
8:54 PM 73.9 °F - 71.1 °F 91% 30.01 in - North - - N/A   Unknown
9:54 PM 73.0 °F - 71.1 °F 93% 30.02 in - North - - N/A   Unknown
10:54 PM 72.0 °F - 70.0 °F 93% 30.01 in - North - - N/A   Unknown
11:54 PM 71.1 °F - 69.1 °F 93% 30.02 in - North - - N/A   Unknown